[[{"header":{"parameterUnit":"m.s-1","parameterCategory":1,"la1":30.2991,"la2":30.254,"lo1":-89.0895,"lo2":-89.0444,"dy":0.0017,"dx":0.0017,"nx":28,"ny":28,"refTime":"2024-08-22T21:00:00:Z","depth":0,"parameterNumber":2,"parameterNumberName":"U-component_of_WINDS"},"data":[0,0,0,0,0,0,0,0,0,0,0,0,0,0,0,0,0,0,0,0,0,0,0,0,0,0,0,0,0,0,0,0,0,0,0,0,0,0,0,0,0,0,0,0,0,0,0,0,0,0,0,0,0,0,0,0,0,0,-6.7754,-6.7754,0,-6.7686,-6.7685,-6.7684,-6.7501,-6.7497,-6.7493,-6.749,-6.7421,-6.7422,-6.7424,0,0,0,0,0,0,0,0,0,0,0,0,0,-6.7724,-6.7726,-6.7754,-6.7754,-6.7753,-6.7686,-6.7685,-6.7684,-6.7502,-6.7497,-6.7492,-6.7488,-6.742,-6.7422,-6.7424,0,0,0,0,0,0,0,0,0,0,0,0,0,-6.7705,-6.7727,-6.7755,-6.7654,-6.7644,-6.7686,-6.7685,-6.7684,-6.7503,-6.7497,-6.7491,-6.7486,-6.7419,-6.7422,-6.7425,-6.756,0,0,-6.7433,-6.7434,0,0,0,0,0,0,0,0,-6.7706,-6.7706,-6.7669,-6.7661,-6.765,-6.7596,-6.7649,-6.7642,-6.7504,-6.7557,-6.7489,-6.7483,-6.7484,-6.7481,-6.7481,-6.7556,-6.7553,-6.7433,-6.7435,-6.7436,-6.7437,0,0,0,0,0,0,0,-6.7708,-6.7708,-6.7727,-6.7669,-6.7657,-6.7611,-6.7602,-6.7647,-6.7554,-6.7551,-6.7538,-6.7532,-6.7477,-6.7479,-6.7478,-6.7552,-6.7433,-6.7436,-6.7437,-6.7438,-6.7726,-6.7732,0,0,0,0,0,0,-6.7724,-6.7711,-6.7729,-6.7725,-6.7664,-6.7616,-6.7606,-6.7619,-6.7553,-6.7537,-6.7537,-6.7524,-6.7477,-6.7475,-6.7475,-6.7621,-6.7436,-6.7439,-6.744,-6.7721,-6.7728,-6.7734,0,0,0,0,0,0,-6.7724,-6.7727,-6.7732,-6.7714,-6.7711,-6.7623,-6.764,-6.7621,-6.7622,-6.7542,-6.7525,-6.7556,-6.7472,-6.7471,-6.7538,-6.7617,-6.744,-6.7442,-6.7713,-6.7723,-6.7731,-6.7921,0,0,0,0,0,0,-6.7724,-6.7729,-6.778,-6.7717,-6.7713,-6.7798,-6.7645,-6.7624,-6.7627,-6.7609,-6.7555,-6.7541,-6.7468,-6.7535,-6.7541,-6.7617,-6.7445,-6.7706,-6.7718,-6.7728,-6.7907,-6.7935,-6.7959,0,0,0,0,0,-6.7724,-6.7838,-6.7783,-6.7787,-6.7775,-6.7803,-6.78,-6.7714,-6.7635,-6.7684,-6.7632,-6.7542,-6.7609,-6.7543,-6.7548,-6.7627,-6.77,-6.7714,-6.7727,-6.7895,-6.7929,-6.7959,0,0,0,0,0,0,-6.7915,-6.7828,-6.7766,-6.7864,-6.7842,-6.7772,-6.7831,-6.7754,-6.7754,-6.7737,-6.763,-6.762,-6.77,-6.7671,-6.76,-6.775,-6.7639,-6.7655,-6.7765,-6.7797,-6.7823,-6.7825,-6.7447,0,0,0,0,0,-6.7968,-6.7998,-6.7921,-6.8014,-6.8006,-6.7922,-6.793,-6.7865,-6.7838,-6.7828,-6.7781,-6.7758,-6.7772,-6.7784,-6.7794,-6.7904,-6.7885,-6.796,-6.7986,-6.8008,-6.802,-6.8069,-6.8099,-6.7779,-6.7779,-6.7778,0,0,-6.8079,-6.8035,-6.8061,-6.8051,-6.8026,-6.8057,-6.7915,-6.7956,-6.7976,-6.7834,-6.7891,-6.7857,-6.7824,-6.791,-6.7947,-6.7889,-6.8105,-6.8025,-6.8043,-6.8043,-6.8086,-6.8116,-6.8143,-6.7788,-6.7786,-6.7785,0,0,-6.8294,-6.8267,-6.8338,-6.8315,-6.8278,-6.822,-6.8238,-6.8178,-6.8148,-6.8205,-6.8097,-6.8121,-6.8151,-6.8128,-6.8122,-6.8325,-6.824,-6.8332,-6.8466,-6.8515,-6.854,-6.8561,-6.8627,-6.8652,-6.8346,-6.8346,-6.8347,0,-6.8436,-6.8478,-6.8385,-6.8429,-6.8426,-6.8298,-6.8366,-6.8349,-6.8318,-6.8318,-6.8254,-6.8284,-6.8253,-6.8329,-6.8378,-6.838,-6.8392,-6.8335,-6.8544,-6.8564,-6.8583,-6.8644,-6.867,-6.8357,-6.8356,-6.8355,-6.8354,0,-6.865,-6.8682,-6.8744,-6.8713,-6.8717,-6.8775,-6.8688,-6.8703,-6.8638,-6.8586,-6.8642,-6.8601,-6.8596,-6.8611,-6.8549,-6.8677,-6.8641,-6.8563,-6.8448,-6.8626,-6.8681,-6.8704,-6.8372,-6.8369,-6.8365,-6.8363,0,0,-6.8983,-6.8897,-6.8921,-6.8902,-6.8851,-6.8872,-6.8923,-6.8917,-6.8929,-6.8913,-6.8948,-6.8974,-6.8899,-6.8891,-6.8826,-6.8869,-6.9023,-6.8784,-6.8781,-6.8824,-6.9153,-6.9208,-6.9237,-6.8969,-6.8974,-6.8977,-6.9154,0,-6.918,-6.9259,-6.9174,-6.927,-6.9293,-6.9171,-6.9213,-6.9185,-6.9138,-6.9151,-6.9099,-6.9116,-6.902,-6.9013,-6.9051,-6.8997,-6.9087,-6.8984,-6.8997,-6.8998,-6.9002,-6.9267,-6.9325,-6.9494,-6.9176,-6.9179,-6.9182,0,-6.942,-6.941,-6.9508,-6.9443,-6.945,-6.949,-6.9474,-6.949,-6.9454,-6.9416,-6.9406,-6.9325,-6.9367,-6.926,-6.9313,-6.9244,-6.9245,-6.9219,-6.9223,-6.9216,-6.9096,-6.926,-6.9547,-6.9569,-6.9216,-6.9214,-6.9211,0,-6.9643,-6.9656,-6.9712,-6.9702,-6.9631,-6.9661,-6.9633,-6.9591,-6.9591,-6.9578,-6.9576,-6.957,-6.9565,-6.9561,-6.9479,-6.941,-6.954,-6.9428,-6.9505,-6.9507,-6.9533,-6.9532,-6.9817,-6.9547,-6.9546,-6.9546,-6.9545,0,-6.9868,-6.9931,-6.981,-6.9846,-6.991,-6.9812,-6.9879,-6.9838,-6.9802,-6.9824,-6.9721,-6.9745,-6.9639,-6.965,-6.9588,-6.9637,-6.9638,-6.9605,-6.9586,-6.961,-6.9613,-6.9605,-6.9588,-6.9552,-6.9551,-6.955,-6.9549,0,-7.0126,-7.0049,-7.0102,-7.003,-7.0013,-7.0063,-7.0,-7.0027,-6.9973,-7.0003,-7.0005,-6.9919,-6.9927,-6.9846,-6.9841,-6.9798,-6.9873,-6.9838,-6.9884,-6.987,-6.995,-6.994,-7.0234,-7.0264,-6.9982,-6.9985,-6.9987,0,-7.0271,-7.0315,-7.0246,-7.0253,-7.0229,-7.0243,-7.0241,-7.0146,-7.0148,-7.0108,-7.014,-7.0139,-7.0132,-7.015,-7.0086,-7.0079,-7.0038,-7.0142,-7.0036,-7.0057,-7.003,-7.0026,-7.0026,-7.0162,-7.0166,-7.0169,-7.0171,0,-7.0534,-7.0493,-7.0493,-7.048,-7.048,-7.0465,-7.0444,-7.0455,-7.0351,-7.0359,-7.0364,-7.0359,-7.035,-7.0348,-7.0328,-7.0297,-7.0215,-7.0205,-7.0221,-7.0243,-7.0264,-7.0246,-6.9936,-7.0198,-7.0195,-7.0193,-7.0192,-7.019,-7.0735,-7.0765,-7.0719,-7.0722,-7.0695,-7.0676,-7.0696,-7.0643,-7.0646,-7.0629,-7.0574,-7.0587,-7.0546,-7.051,-7.0487,-7.0494,-7.0444,-7.047,-7.0474,-7.048,-7.0491,-7.0269,-7.0492,-7.0491,-7.049,-7.0489,-7.0489,0,-7.0985,-7.0949,-7.0953,-7.0923,-7.0924,-7.0848,-7.0819,-7.0824,-7.0837,-7.0805,-7.08,-7.0803,-7.08,-7.0736,-7.0724,-7.0742,-7.0704,-7.0741,-7.0735,-7.0728,-7.0542,-7.0525,-7.0772,-7.0772,-7.0772,-7.0772,-7.0772,-7.0772,-7.1115,-7.116,-7.1113,-7.1143,-7.1106,-7.1116,-7.1105,-7.1086,-7.1059,-7.1066,-7.1062,-7.102,-7.0974,-7.0957,-7.0949,-7.093,-7.0928,-7.0977,-7.0945,-7.077,-7.0742,-7.0716,-7.0699,-7.0979,-7.0979,-7.1129,-7.1131,-7.1132]},{"header":{"parameterUnit":"m.s-1","parameterCategory":1,"la1":30.2991,"la2":30.254,"lo1":-89.0895,"lo2":-89.0444,"dy":0.0017,"dx":0.0017,"nx":28,"ny":28,"refTime":"2024-08-22T21:00:00:Z","depth":0,"parameterNumber":3,"parameterNumberName":"V-component_of_WINDS"},"data":[0,0,0,0,0,0,0,0,0,0,0,0,0,0,0,0,0,0,0,0,0,0,0,0,0,0,0,0,0,0,0,0,0,0,0,0,0,0,0,0,0,0,0,0,0,0,0,0,0,0,0,0,0,0,0,0,0,0,1.0447,1.045,0,1.0698,1.07,1.0703,1.0708,1.0705,1.0702,1.0699,1.095,1.0959,1.0969,0,0,0,0,0,0,0,0,0,0,0,0,0,0.9971,0.998,1.0447,1.045,1.0453,1.0697,1.07,1.0704,1.0709,1.0705,1.0701,1.0698,1.0947,1.0958,1.097,0,0,0,0,0,0,0,0,0,0,0,0,0,1.0195,0.9983,1.0446,1.0485,1.0491,1.0696,1.0701,1.0705,1.071,1.0705,1.07,1.0696,1.0943,1.0957,1.0971,1.1152,0,0,1.1015,1.1021,0,0,0,0,0,0,0,0,1.0182,1.0212,1.0476,1.0483,1.049,1.0667,1.0625,1.0855,1.0711,1.0627,1.0699,1.0694,1.0859,1.088,1.0937,1.1164,1.1175,1.1016,1.1025,1.1031,1.1035,0,0,0,0,0,0,0,1.0167,1.0202,1.0546,1.048,1.0489,1.049,1.0516,1.0668,1.0766,1.0634,1.0635,1.0665,1.0862,1.0923,1.0943,1.1179,1.1016,1.1029,1.1037,1.1043,1.1572,1.1577,0,0,0,0,0,0,1.0144,1.0189,1.0538,1.0553,1.0322,1.0502,1.0532,1.0615,1.0764,1.0782,1.0668,1.0664,1.0901,1.0926,1.0952,1.1178,1.1031,1.1044,1.1053,1.1567,1.1573,1.1579,0,0,0,0,0,0,1.0134,1.0175,1.0528,1.0372,1.0417,1.0515,1.0608,1.0622,1.0684,1.079,1.0807,1.0713,1.0898,1.0932,1.1104,1.1187,1.1051,1.1064,1.156,1.1569,1.1576,1.163,0,0,0,0,0,0,1.012,1.0171,1.0242,1.0373,1.0425,1.0677,1.0613,1.063,1.0709,1.0706,1.0837,1.0854,1.0897,1.1083,1.1119,1.1204,1.1075,1.1553,1.1564,1.1574,1.1621,1.1639,1.1654,0,0,0,0,0,1.0103,1.0244,1.0245,1.0287,1.0515,1.0682,1.0711,1.076,1.0716,1.0787,1.0857,1.085,1.1172,1.11,1.1141,1.1232,1.1549,1.1561,1.1573,1.1614,1.1635,1.1654,0,0,0,0,0,0,1.0116,1.0262,1.0264,1.0452,1.0555,1.0682,1.0774,1.078,1.0895,1.0887,1.094,1.097,1.1143,1.1204,1.1122,1.1418,1.1355,1.1376,1.1372,1.1393,1.1409,1.1392,1.1087,0,0,0,0,0,1.0142,1.0266,1.0386,1.054,1.0592,1.0674,1.0748,1.0778,1.0885,1.0928,1.1009,1.1112,1.1237,1.1318,1.1438,1.1629,1.166,1.1712,1.1728,1.1741,1.176,1.187,1.1896,1.162,1.162,1.1619,0,0,1.0194,1.0289,1.0364,1.0545,1.0628,1.0757,1.071,1.0846,1.0942,1.0947,1.1118,1.1181,1.13,1.1484,1.1569,1.154,1.1843,1.1757,1.1767,1.1778,1.1885,1.1911,1.1934,1.1628,1.1627,1.1625,0,0,1.0356,1.0439,1.058,1.0665,1.0793,1.0847,1.0881,1.1009,1.1053,1.1224,1.1233,1.1346,1.1559,1.1645,1.1716,1.1916,1.1916,1.1953,1.204,1.2147,1.2168,1.2188,1.2263,1.2289,1.1971,1.1971,1.1971,0,1.0405,1.06,1.065,1.079,1.0871,1.0884,1.1028,1.1107,1.1266,1.1322,1.1288,1.1559,1.1639,1.1846,1.1896,1.1951,1.1993,1.194,1.2161,1.2182,1.2201,1.2273,1.2301,1.1975,1.1974,1.1974,1.1973,0,1.0656,1.0791,1.0889,1.1047,1.1139,1.1279,1.1351,1.1437,1.1459,1.1517,1.1694,1.1791,1.1934,1.1985,1.2005,1.2196,1.2175,1.215,1.2089,1.223,1.2299,1.2327,1.1981,1.1979,1.1978,1.1977,0,0,1.0832,1.1021,1.1056,1.113,1.1274,1.1379,1.152,1.1663,1.1738,1.1847,1.1969,1.2151,1.2131,1.2212,1.2243,1.2336,1.2493,1.2301,1.2304,1.2337,1.2714,1.2734,1.2765,1.2493,1.2499,1.2503,1.2705,0,1.1013,1.1269,1.1321,1.1541,1.1669,1.1686,1.1809,1.1911,1.197,1.2086,1.2149,1.2279,1.2241,1.2291,1.2384,1.2455,1.257,1.244,1.2608,1.2613,1.2581,1.2801,1.2822,1.3008,1.2732,1.2737,1.274,0,1.1258,1.138,1.1614,1.1746,1.1802,1.1912,1.205,1.216,1.2276,1.2312,1.2406,1.2427,1.2575,1.2505,1.2711,1.2622,1.2693,1.2739,1.2747,1.2767,1.2687,1.283,1.3068,1.3098,1.2782,1.2779,1.2776,0,1.137,1.159,1.1761,1.1823,1.198,1.2058,1.2126,1.2238,1.2322,1.2441,1.2497,1.263,1.2704,1.2807,1.2864,1.2807,1.3067,1.3,1.3103,1.3102,1.3159,1.3155,1.3415,1.3199,1.3198,1.3198,1.3197,0,1.1568,1.1712,1.1814,1.1919,1.2082,1.214,1.2299,1.2366,1.2466,1.2585,1.2605,1.2715,1.2783,1.2903,1.2947,1.3114,1.3145,1.318,1.3191,1.3181,1.3177,1.323,1.322,1.3205,1.3204,1.3202,1.3201,0,1.172,1.1794,1.1982,1.2117,1.2154,1.2268,1.2383,1.2486,1.2546,1.2696,1.2734,1.2828,1.2971,1.3038,1.3213,1.3243,1.3434,1.3433,1.3396,1.3401,1.3501,1.3492,1.3808,1.3853,1.3603,1.3605,1.3607,0,1.1844,1.1956,1.2105,1.2188,1.226,1.2391,1.2479,1.254,1.263,1.2774,1.286,1.3005,1.3124,1.3352,1.3434,1.357,1.3575,1.3677,1.3595,1.3583,1.3582,1.3576,1.3589,1.3692,1.3694,1.3696,1.3698,0,1.2057,1.2089,1.2216,1.2358,1.2463,1.2576,1.2686,1.2752,1.2832,1.2932,1.3081,1.3174,1.3356,1.35,1.3642,1.3711,1.3719,1.3723,1.3754,1.3747,1.3722,1.3741,1.344,1.3716,1.3714,1.3713,1.3712,1.3711,1.2202,1.2304,1.2427,1.2569,1.266,1.2764,1.287,1.2945,1.3071,1.3227,1.3254,1.3413,1.3529,1.3721,1.3796,1.392,1.3897,1.3941,1.3953,1.3964,1.3972,1.37,1.3945,1.3945,1.3945,1.3944,1.3944,0,1.242,1.2501,1.2631,1.2788,1.2901,1.2901,1.3024,1.3118,1.3259,1.3368,1.3487,1.3659,1.38,1.3895,1.4038,1.412,1.4127,1.4155,1.4152,1.4168,1.3983,1.3944,1.4147,1.4147,1.4147,1.4147,1.4147,1.4147,1.2547,1.2723,1.277,1.2991,1.307,1.323,1.3301,1.3398,1.3486,1.3679,1.3798,1.386,1.3964,1.4116,1.4245,1.4269,1.4322,1.4352,1.4376,1.4202,1.418,1.416,1.4124,1.4362,1.4363,1.4552,1.4553,1.4555]}]]